Location: *
(57.8420°S, 159.8600°W)
Time: 04:16:24
(UTC+00:00)

Radarsat Rocket - Pass Details

Date: 18 May 2021
Orbit: 934 x 1491 km, 100.6° (Epoch: 23 June)

Event Time Altitude Azimuth Distance (km) Brightness Sun altitude
Rises 05:14:27 0° 160° (SSE) 3,880 6.9 -21.6°
Reaches altitude 10° 05:17:07 10° 156° (SSE) 2,857 6.2 -21.9°
Maximum altitude 05:23:23 62° 75° (ENE) 1,097 3.9 -22.8°
Drops below altitude 10° 05:29:11 10° 354° (N) 2,661 6.3 -23.6°
Sets 05:31:36 0° 350° (N) 3,596 7.1 -23.9°
